Regional Weather Roundup
Issued by NWS

Home | Current Version | Previous Version | Graphics & Text | Print | Product List | Glossary On
Versions: 1 2 3 4 5 6 7 8 9 10 11 12 13 14 15 16 17 18 19 20 21 22 23 24 25 26 27 28 29 30 31 32 33 34 35 36 37 38 39 40 41 42 43 44 45 46 47 48 49 50
000
ASUS43 KOAX 262302
RWRNE

WEATHER ROUNDUP FOR NEBRASKA
NATIONAL WEATHER SERVICE OMAHA NE
600 PM CDT TUE MAY 26 2015

NOTES: SATELLITE DATA IS BEING USED TO AUGMENT CLOUD COVER ABOVE
       12000 FEET.
       "FAIR" INDICATES FEW OR NO CLOUDS BELOW 12,000 FEET WITH NO
       SIGNIFICANT WEATHER AND/OR OBSTRUCTIONS TO VISIBILITY.

  * THESE STATIONS DO NOT REPORT WEATHER SUCH AS RAIN...SNOW OR FOG.

NEZ001>004-019>022-054>056-270000-
NEBRASKA PANHANDLE

CITY           SKY/WX    TMP DP  RH WIND       PRES   REMARKS
SCOTTSBLUFF    PTSUNNY   69  49  48 SE9       29.97F
ALLIANCE       PTSUNNY   65  48  54 E7        29.99S
CHADRON        MOSUNNY   70  48  45 S6        29.96S
SIDNEY         MOSUNNY   64  52  64 SE8       30.01F
$$

NEZ057>060-069>072-079>082-270000-
SOUTHWEST NEBRASKA

CITY           SKY/WX    TMP DP  RH WIND       PRES   REMARKS
NORTH PLATTE   SUNNY     70  46  42 N6        29.98R
IMPERIAL       SUNNY     71  49  45 NE3       29.99S
LEXINGTON      MOSUNNY   70  52  52 N6        29.97S
MCCOOK         MOSUNNY   72  48  42 NE6       29.97S
$$

NEZ005>010-023>029-035>040-094-270000-
NORTH CENTRAL NEBRASKA

CITY           SKY/WX    TMP DP  RH WIND       PRES   REMARKS
VALENTINE      MOSUNNY   74  44  34 VRB3      29.94F
AINSWORTH      MOSUNNY   71  47  41 N6        29.94S
BROKEN BOW     SUNNY     71  49  45 N10       29.96S
ORD            PTSUNNY   69  51  52 NW9       29.92F
$$

NEZ041-046>049-061>064-073>077-083>087-270000-
SOUTH CENTRAL NEBRASKA

CITY           SKY/WX    TMP DP  RH WIND       PRES   REMARKS
GRAND ISLAND   PTSUNNY   71  49  45 NW15      29.93R
AURORA         MOSUNNY   71  48  43 N15       29.91S
HASTINGS       MOSUNNY   69  50  50 N14       29.93R
KEARNEY *      MOSUNNY   72  46  40 N15       29.95R
$$

NEZ011>018-030>034-042>045-270000-
NORTHEAST NEBRASKA

CITY           SKY/WX    TMP DP  RH WIND       PRES   REMARKS
NORFOLK        PTSUNNY   71  53  52 NW10      29.87S
ALBION         MOSUNNY   67  56  67 W5        29.90F
BLAIR          PTSUNNY   66  55  67 W9G17     29.86F
COLUMBUS *       N/A    N/A N/A N/A MISG        N/A
FREMONT        MOSUNNY   69  56  61 W8        29.87S
TEKAMAH        PTSUNNY   69  58  67 W9        29.84F
$$

NEZ050>053-065>068-078-088>093-270000-
SOUTHEAST NEBRASKA

CITY           SKY/WX    TMP DP  RH WIND       PRES   REMARKS
LINCOLN        CLOUDY    70  55  59 NW10      29.89S
OMAHA EPPLEY   CLOUDY    66  58  75 NW8       29.86S
BEATRICE       PTSUNNY   70  56  60 W9        29.89S
FALLS CITY     MOSUNNY   75  60  59 W17       29.85S
NEBRASKA CITY  MOSUNNY   69  58  68 NW14      29.87S
PLATTSMOUTH    CLOUDY    68  57  68 W10       29.87S
$$

NEZ044-045-051>053-067-270000-
OMAHA AREA

CITY           SKY/WX    TMP DP  RH WIND       PRES   REMARKS
OMAHA EPPLEY   CLOUDY    66  58  75 NW8       29.86S
BLAIR          PTSUNNY   66  55  67 W9G17     29.86F
FREMONT        MOSUNNY   69  56  61 W8        29.87S
OFFUTT AFB     MOSUNNY   68  58  70 W12       29.85S
PLATTSMOUTH    CLOUDY    68  57  68 W10       29.87S
WAHOO          FAIR      68  56  64 W10       29.87F
$$



USA.gov is the U.S. government's official web portal to all federal, state and local government web resources and services.